Rugby, ND

12:39 AM CST on February 21, 2017 (GMT -0600)
Rugby Municipal

Weather History for KRUG - January, 2014

Change the Weather History Date:

Tuesday, January 7, 2014

  Actual Average Record
Temperature  
Mean Temperature -11 °F -  
Max Temperature -4 °F 11 °F 41 °F (1963)
Min Temperature -20 °F -8 °F -31 °F (1966)
Degree Days  
Heating Degree Days 76    
Moisture  
Dew Point -14 °F    
Average Humidity 78    
Maximum Humidity 84    
Minimum Humidity 71    
Precipitation  
Precipitation 0.00 in - - ()
Sea Level Pressure  
Sea Level Pressure 30.09 in    
Wind  
Wind Speed 9 mph (WNW)    
Max Wind Speed 20 mph    
Max Gust Speed -    
Visibility 10 miles    
Events Snow    
Averages and records for this station are not official NWS values.
T = Trace of Precipitation, MM = Missing Value Source: NWS Daily Summary

Daily Weather History Graph

Daily Weather History Graph

Search for Another Location

Airport or City:

Trip Planner

Search our weather history database for the weather conditions in past years. The results will help you decide how hot, cold, wet, or windy it might be!

Date:

Astronomy

Jan. 07, 2014 Rise Set
Actual Time 8:30 AM CST 5:02 PM CST
Civil Twilight 7:54 AM CST 5:38 PM CST
Nautical Twilight 7:14 AM CST 6:18 PM CST
Astronomical Twilight 6:37 AM CST 6:56 PM CST
Moon 11:44 AM CST (1/7) 12:10 AM CST (1/7)
Length of Visible Light 9h 44m
Length of Day
8h 32m
Waxing Crescent, 46% of the Moon is Illuminated
Jan 7
Waxing Crescent
Jan 7
First Quarter
Jan 15
Full
Jan 23
Last Quarter
Jan 30
New

Hourly Weather History & Observations

Time (CST) Temp. Windchill Dew Point Humidity Pressure Visibility Wind Dir Wind Speed Gust Speed Precip Events Conditions
12:15 AM -5.8 °F -22.4 °F -11.2 °F 77% 29.97 in 9.0 mi WNW 9.2 mph - N/A Snow Light Snow
12:35 AM -5.8 °F -24.4 °F -11.2 °F 77% 29.98 in 8.0 mi WNW 11.5 mph - N/A Snow Light Snow
12:55 AM -4.0 °F -21.2 °F -11.2 °F 71% 29.98 in 10.0 mi West 10.4 mph - N/A Snow Light Snow
1:15 AM -4.0 °F -22.1 °F -11.2 °F 71% 29.98 in 10.0 mi West 11.5 mph - N/A Snow Light Snow
1:35 AM -4.0 °F -21.2 °F -11.2 °F 71% 29.96 in 10.0 mi WNW 10.4 mph - N/A   Clear
1:55 AM -4.0 °F -20.2 °F -9.4 °F 78% 29.96 in 10.0 mi WNW 9.2 mph - N/A   Clear
2:15 AM -4.0 °F -20.2 °F -9.4 °F 78% 29.98 in 10.0 mi WNW 9.2 mph - N/A   Clear
2:35 AM -4.0 °F -17.8 °F -9.4 °F 78% 29.98 in 10.0 mi WNW 6.9 mph - N/A Snow Light Snow
2:55 AM -4.0 °F -19.0 °F -9.4 °F 78% 29.97 in 5.0 mi WNW 8.1 mph - N/A Snow Light Snow
3:15 AM -4.0 °F -19.0 °F -9.4 °F 78% 29.98 in 9.0 mi WNW 8.1 mph - N/A Snow Light Snow
3:35 AM -4.0 °F -17.8 °F -9.4 °F 78% 29.98 in 10.0 mi WNW 6.9 mph - N/A   Mostly Cloudy
3:55 AM -4.0 °F -17.8 °F -9.4 °F 78% 29.97 in 10.0 mi WNW 6.9 mph - N/A   Mostly Cloudy
4:15 AM -5.8 °F -22.4 °F -11.2 °F 77% 29.98 in 10.0 mi WNW 9.2 mph - N/A   Partly Cloudy
4:35 AM -7.6 °F -22.1 °F -11.2 °F 84% 29.98 in 10.0 mi WNW 6.9 mph - N/A   Clear
4:55 AM -7.6 °F -18.8 °F -13.0 °F 77% 29.99 in 10.0 mi WNW 4.6 mph - N/A   Clear
5:15 AM -9.4 °F -24.3 °F -13.0 °F 84% 29.99 in 10.0 mi WNW 6.9 mph - N/A   Clear
5:35 AM -9.4 °F -18.6 °F -13.0 °F 84% 29.99 in 10.0 mi NW 3.5 mph - N/A   Clear
5:55 AM -9.4 °F -20.9 °F -13.0 °F 84% 30.01 in 10.0 mi NW 4.6 mph - N/A   Clear
6:15 AM -11.2 °F -26.4 °F -14.8 °F 84% 30.01 in 10.0 mi WNW 6.9 mph - N/A   Clear
6:35 AM -13.0 °F -28.6 °F -16.6 °F 84% 30.01 in 10.0 mi WNW 6.9 mph - N/A   Clear
6:55 AM -13.0 °F -27.0 °F -18.4 °F 77% 30.02 in 10.0 mi West 5.8 mph - N/A   Clear
7:15 AM -13.0 °F - -18.4 °F 77% 30.03 in 10.0 mi Calm Calm - N/A   Clear
7:35 AM -11.2 °F -23.0 °F -16.6 °F 77% 30.03 in 10.0 mi NW 4.6 mph - N/A   Clear
7:55 AM -13.0 °F -27.0 °F -18.4 °F 77% 30.03 in 10.0 mi NNW 5.8 mph - N/A   Clear
8:15 AM -13.0 °F -22.7 °F -16.6 °F 84% 30.03 in 10.0 mi West 3.5 mph - N/A   Clear
8:35 AM -13.0 °F -22.7 °F -18.4 °F 77% 30.03 in 10.0 mi West 3.5 mph - N/A   Clear
8:55 AM -13.0 °F -27.0 °F -18.4 °F 77% 30.04 in 10.0 mi West 5.8 mph - N/A   Partly Cloudy
9:15 AM -13.0 °F -27.0 °F -18.4 °F 77% 30.05 in 10.0 mi West 5.8 mph - N/A   Clear
9:35 AM -13.0 °F -22.7 °F -18.4 °F 77% 30.06 in 10.0 mi NNW 3.5 mph - N/A   Clear
9:55 AM -11.2 °F -24.8 °F -16.6 °F 77% 30.07 in 10.0 mi WNW 5.8 mph - N/A   Clear
10:15 AM -11.2 °F -20.6 °F -14.8 °F 84% 30.08 in 10.0 mi West 3.5 mph - N/A   Clear
10:35 AM -9.4 °F -18.6 °F -14.8 °F 77% 30.09 in 10.0 mi West 3.5 mph - N/A   Clear
10:55 AM -9.4 °F -26.8 °F -13.0 °F 84% 30.10 in 10.0 mi WNW 9.2 mph - N/A   Clear
11:15 AM -7.6 °F -25.7 °F -11.2 °F 84% 30.10 in 10.0 mi West 10.4 mph - N/A   Clear
11:35 AM -5.8 °F -26.0 °F -11.2 °F 77% 30.09 in 10.0 mi WNW 13.8 mph - N/A   Clear
11:55 AM -4.0 °F -23.7 °F -9.4 °F 78% 30.09 in 10.0 mi WNW 13.8 mph - N/A   Scattered Clouds
12:15 PM -4.0 °F -24.5 °F -9.4 °F 78% 30.09 in 10.0 mi WNW 15.0 mph - N/A   Partly Cloudy
12:35 PM -4.0 °F -23.7 °F -9.4 °F 78% 30.08 in 10.0 mi WNW 13.8 mph - N/A   Partly Cloudy
12:55 PM -4.0 °F -25.8 °F -11.2 °F 71% 30.09 in 10.0 mi WNW 17.3 mph - N/A   Clear
1:15 PM -4.0 °F -27.0 °F -11.2 °F 71% 30.09 in 9.0 mi WNW 19.6 mph - N/A   Clear
1:35 PM -5.8 °F -28.2 °F -11.2 °F 77% 30.08 in 10.0 mi NW 17.3 mph - N/A   Clear
1:55 PM -5.8 °F -28.2 °F -11.2 °F 77% 30.08 in 10.0 mi NW 17.3 mph - N/A   Clear
2:15 PM -5.8 °F -24.4 °F -11.2 °F 77% 30.07 in 10.0 mi NW 11.5 mph - N/A   Clear
2:35 PM -4.0 °F -25.2 °F -11.2 °F 71% 30.09 in 10.0 mi NW 16.1 mph - N/A   Clear
2:55 PM -5.8 °F -27.5 °F -11.2 °F 77% 30.10 in 10.0 mi WNW 16.1 mph - N/A   Partly Cloudy
3:15 PM -5.8 °F -28.2 °F -11.2 °F 77% 30.10 in 10.0 mi NW 17.3 mph - N/A   Partly Cloudy
3:35 PM -5.8 °F -27.5 °F -11.2 °F 77% 30.10 in 10.0 mi NNW 16.1 mph - N/A   Clear
3:55 PM -5.8 °F -26.0 °F -11.2 °F 77% 30.11 in 10.0 mi NW 13.8 mph - N/A   Clear
4:15 PM -5.8 °F -24.4 °F -11.2 °F 77% 30.12 in 10.0 mi NW 11.5 mph - N/A   Clear
4:35 PM -5.8 °F -22.4 °F -11.2 °F 77% 30.13 in 10.0 mi NW 9.2 mph - N/A   Partly Cloudy
4:55 PM -5.8 °F -24.4 °F -11.2 °F 77% 30.14 in 10.0 mi WNW 11.5 mph - N/A   Scattered Clouds
5:15 PM -5.8 °F -23.4 °F -11.2 °F 77% 30.14 in 10.0 mi WNW 10.4 mph - N/A   Mostly Cloudy
5:35 PM -5.8 °F -22.4 °F -11.2 °F 77% 30.15 in 10.0 mi NW 9.2 mph - N/A   Mostly Cloudy
5:55 PM -5.8 °F -21.2 °F -11.2 °F 77% 30.15 in 10.0 mi NW 8.1 mph - N/A   Mostly Cloudy
6:15 PM -5.8 °F -23.4 °F -11.2 °F 77% 30.16 in 10.0 mi WNW 10.4 mph - N/A   Scattered Clouds
6:35 PM -7.6 °F -24.6 °F -11.2 °F 84% 30.17 in 10.0 mi WNW 9.2 mph - N/A   Partly Cloudy
6:55 PM -7.6 °F -24.6 °F -13.0 °F 77% 30.18 in 10.0 mi NW 9.2 mph - N/A   Partly Cloudy
7:15 PM -9.4 °F -24.3 °F -13.0 °F 84% 30.19 in 10.0 mi WNW 6.9 mph - N/A   Clear
7:35 PM -9.4 °F -25.6 °F -14.8 °F 77% 30.19 in 10.0 mi WNW 8.1 mph - N/A   Clear
7:55 PM -11.2 °F -26.4 °F -16.6 °F 77% 30.20 in 10.0 mi WNW 6.9 mph - N/A   Clear
8:15 PM - - - N/A% 30.20 in 10.0 mi WNW 6.9 mph - N/A   Clear
8:35 PM -13.0 °F -28.6 °F -18.4 °F 77% 30.21 in 10.0 mi NW 6.9 mph - N/A   Clear
8:55 PM -13.0 °F -25.1 °F -18.4 °F 77% 30.21 in 10.0 mi NNW 4.6 mph - N/A   Clear
9:15 PM -13.0 °F -28.6 °F -18.4 °F 77% 30.21 in 10.0 mi North 6.9 mph - N/A   Clear
9:35 PM -16.6 °F -29.3 °F -20.2 °F 84% 30.21 in 10.0 mi NNW 4.6 mph - N/A   Clear
9:55 PM -16.6 °F -31.3 °F -20.2 °F 84% 30.22 in 10.0 mi NW 5.8 mph - N/A   Clear
10:15 PM -16.6 °F -29.3 °F -20.2 °F 84% 30.22 in 10.0 mi NW 4.6 mph - N/A   Clear
10:35 PM -16.6 °F -31.3 °F -20.2 °F 84% 30.23 in 10.0 mi NW 5.8 mph - N/A   Clear
10:55 PM -18.4 °F -35.1 °F -22.0 °F 84% 30.23 in 10.0 mi NW 6.9 mph - N/A   Clear
11:15 PM -18.4 °F -33.4 °F -23.8 °F 76% 30.23 in 10.0 mi WNW 5.8 mph - N/A   Clear
11:35 PM -18.4 °F -31.4 °F -23.8 °F 76% 30.24 in 10.0 mi WNW 4.6 mph - N/A   Clear
11:55 PM -20.2 °F -35.5 °F -25.6 °F 76% 30.24 in 10.0 mi WNW 5.8 mph - N/A   Clear